Regional Weather Roundup
Issued by NWS

Home | Current Version | Previous Version | Graphics & Text | Print | Product List | Glossary On
Versions: 1 2 3 4 5 6 7 8 9 10 11 12 13 14 15 16 17 18 19 20 21 22 23 24 25 26 27 28 29 30 31 32 33 34 35 36 37 38 39 40 41 42 43 44 45 46 47 48 49 50
000
ASUS43 KDMX 242103
RWRIA

WEATHER ROUNDUP FOR IOWA
NATIONAL WEATHER SERVICE DES MOINES IA
400 PM CDT SUN JUL 24 2016

NOTE: "FAIR" INDICATES FEW OR NO CLOUDS BELOW 12,000 FEET WITH NO
SIGNIFICANT WEATHER AND/OR OBSTRUCTIONS TO VISIBILITY.

* - THESE STATIONS ARE NOT NWS STATIONS...THUS NOT UNDER NWS
QUALITY CONTROL.  THEY ALSO DO NOT REPORT WEATHER SUCH
AS PRECIPITATION OR FOG.

IAZ001>003-012>014-020>022-031>034-043>046-242200-
   NORTHWEST IOWA

CITY           SKY/WX    TMP DP  RH WIND       PRES   REMARKS
CARROLL *      CLOUDY    81  68  65 N9        30.01R HX  83
CHEROKEE *     CLOUDY    82  64  54 N9        30.01F HX  84
LE MARS *      CLOUDY    84  63  48 N10       30.03R HX  85
SHELDON *      CLOUDY    77  64  65 NW9       30.01F
SIOUX CITY     CLOUDY    86  61  42 NW9       30.01S HX  86
SPENCER        CLOUDY    81  63  54 NW13      30.02F HX  82
STORM LAKE *   CLOUDY    81  66  61 N8        30.02F HX  83
$$

IAZ055>058-069>071-079>083-090>094-242200-
   SOUTHWEST IOWA

CITY           SKY/WX    TMP DP  RH WIND       PRES   REMARKS
ATLANTIC *     CLOUDY    81  70  69 N9        30.01R HX  84
CLARINDA *       N/A     82  72  69 MISG      30.01R HX  87
COUNCIL BLFS * CLOUDY    81  68  65 NW6G13    30.03R HX  83
CRESTON *      CLOUDY    82  68  61 N13       29.99R HX  85
HARLAN  *      PTSUNNY   82  70  65 N8        30.04S HX  86
LAMONI         MOSUNNY   84  76  76 N8        29.96R HX  93
RED OAK *      CLOUDY    82  68  61 N8        30.01R HX  85
SHENANDOAH *   PTSUNNY   82  70  65 NW7       30.02R HX  86
$$

IAZ047>049-059>061-072>074-084-242200-
   CENTRAL IOWA

CITY           SKY/WX    TMP DP  RH WIND       PRES   REMARKS
AMES           PTSUNNY   83  68  60 NW14      29.97R HX  86
ANKENY *         N/A    N/A N/A N/A MISG        N/A
BOONE *        CLOUDY    82  68  61 NW13      29.98R HX  85
CHARITON *       N/A    N/A N/A N/A MISG        N/A
DES MOINES     CLOUDY    88  66  48 N10       29.95R HX  90
GRINNELL*      CLOUDY    84  69  60 N9        29.94S HX  88
KNOXVILLE *    CLOUDY    86  70  58 NW10G16   29.93R HX  90
MARSHALLTOWN   SUNNY     85  69  58 NW9       29.93S HX  89
NEWTON *       PTSUNNY   86  70  58 N10       29.93S HX  90
PELLA *        CLOUDY    86  69  56 N9        29.94R HX  91
PERRY *          N/A     83  73  70 NW7       29.99R HX  89
$$

IAZ004>006-015-016-023>025-035-036-242200-
   NORTH CENTRAL IOWA

CITY           SKY/WX    TMP DP  RH WIND       PRES   REMARKS
ALGONA *       CLOUDY    81  64  57 NW13G24   30.02F HX  82
ESTHERVILLE    CLOUDY    77  66  68 NW9       30.02F
FORT DODGE *   CLOUDY    79  66  65 NW7       30.01R HX  81
MASON CITY     CLOUDY    79  66  64 W16G22    30.02R HX  81
FOREST CITY *  LGT RAIN  75  64  69 NW12G21   30.01R
IOWA FALLS *     N/A     82  67  60 NW9       29.97R HX  84
$$

IAZ007>011-017>019-026>030-037>042-050>054-066-242200-
   NORTHEAST IOWA

CITY           SKY/WX    TMP DP  RH WIND       PRES   REMARKS
CEDAR RAPIDS   MOSUNNY   88  78  72 N12       29.89R HX 101
CHARLES CITY * CLOUDY    81  66  61 NW8       29.95S HX  83
CLINTON *      CLOUDY    90  83  79 W8        29.87S HX 113
DECORAH *      SUNNY     82  66  57 VRB5G13   29.92R HX  85
DUBUQUE        MOSUNNY   87  79  76 W8        29.89S HX 101
MONTICELLO *   CLOUDY    88  79  74 W12       29.88R HX 102
OELWEIN *      MOSUNNY   82  70  65 NW12      29.94R HX  86
WATERLOO       MOSUNNY   85  68  56 NW8       29.91R HX  88
$$

IAZ064-065-067-068-078-242200-
   EAST CENTRAL IOWA

CITY           SKY/WX    TMP DP  RH WIND       PRES   REMARKS
DAVENPORT      CLOUDY    89  80  74 SW5       29.88S HX 106
IOWA CITY      CLOUDY    89  78  70 VRB6      29.90R HX 103
MT. PLEASANT * CLOUDY    89  80  76 SW3       29.90S HX 106
MUSCATINE *    CLOUDY    90  81  74 SW8       29.87S HX 108
QUAD CITIES    CLOUDY    91  78  65 W8        29.86S HX 106
$$

IAZ062-063-075>077-085>089-095>099-242200-
   SOUTHEAST IOWA

CITY           SKY/WX    TMP DP  RH WIND       PRES   REMARKS
BURLINGTON     CLOUDY    87  80  79 NW8       29.89R HX 103
FAIRFIELD *    CLOUDY    88  81  79 NW5       29.90R HX 105
KEOKUK *       CLOUDY    90  79  70 NW8       29.89S HX 105
OSKALOOSA *      N/A     85  77  76 N8        29.92R HX  96
CENTERVILLE *  PTSUNNY   86  81  84 NW7       29.94S HX 102
OTTUMWA        CLOUDY    86  78  77 NW9       29.91R HX  98
WASHINGTON *   CLOUDY    88  81  79 NW10      29.90S HX 105
$$

ABBREVIATIONS USED IN REMARKS
   TC - TEMPERATURES IN CELSIUS
  WCI - WIND CHILL INDEX
   HX - HEAT INDEX
  VSB - VISIBILITY
$$





USA.gov is the U.S. government's official web portal to all federal, state and local government web resources and services.